Showing default

OPS 4412 (TRANSIT 9), 801

Orbit data source: Space-Track

OPS 4412 (TRANSIT 9), 801 is a payload satellite owned by USN BuWeps (US) in LEO that was launched on Thu, 04 Jun 1964 UTC via an SCOUT X-4 launch vehicle from the Air Force Western Test Range (AFWTR). Payload-class satellites include a variety of spacecraft equipped with specific instruments for various scientific and technological missions. These include communications satellites like Starlink; space stations such as the ISS; scientific satellites like the Hubble; Earth observation satellites from companies like Planet Labs, Umbra, and HawkEye 360; GPS; miniature CubeSats for education and research; and military/defense satellites.

Loading next visibility...
Identifier
801, 1964-026A
Orbit
LEO
Last TLE update
21 hours ago
Origin
Manufacturer
APL
Mission
Defense Navigation
Bus & Motor
TRANSIT 5, Unknown motor
Mass
54 kg wet, 54 kg dry
Launch date (UTC)
1964-06-04 (61 years ago)
Launch vehicle
SCOUT X-4
Launch site
Air Force Western Test Range (AFWTR)
Object type
Payload
Rocket body
Debris
Shape & HBR
Oct Cyl + 4 Pan + 1 Rod, 30 m
Radar Cross Section
7.568 m², Large (>1 m²)

Expand to show TLE details & history

TLE from 21 hours ago
0 OPS 4412 (TRANSIT 9)
1 00801U 64026A   25128.97946224  .00000518  00000-0  25287-3 0  9999
2 00801  90.4545 167.1737 0045327 249.0458 110.5877 14.16639621128912
Epoch: 2025-05-08T23:30Z
Definitive object data (Epoch: 2025-05-08T23:30:25.537Z)
Latitude
Longitude
-52.47489°
Altitude
851.421 km
Speed
7.421 km/s
True Right ascension
11h 08m 41s
True Declination
0° 00' 00"
Sunlit
Object was in full shadow at TLE epoch
Visualization TLE readout
Latitude
78.17515°
Longitude
-54.59067°
Altitude
882.03 km
Speed
7.401 km/s
Apparent Right ascension
15h 20m 12s
Apparent Declination
29° 26' 27"
Sunlit
Object is in daylight
Visualization observer readout
Local Sidereal Time
04:24:17
Azimuth
14.733° NNE
Elevation
-19.062°
Doppler factor
1
Orbital elements
Apogee altitude
866.383 km
Perigee altitude
801.004 km
Semi-major axis
7,211.831 km
Eccentricity
0.0045327
Inclination
90.4545°
RAAN
167.1737°
Arg. of periapsis
249.0458°
True anomaly
111.07296°
Mean anomaly
110.5877°
Eccentric anomaly
110.83043°
Mean motion
3.54385 °/min
BSTAR
0.00025287
Orbital period
101.58 mins
Loading maneuver chart data...
Loading SW <> Apogee altitude chart data...
Loading historical data...
Loading historical data...
Loading historical data...
Loading historical data...
Loading historical data...
Loading historical data...
Loading historical data...

OPS 4412 (TRANSIT 9) Visibility forecast

Observer location: undefined°, undefined°

Span
Click to sort rows by Start time (UTC) header in descending order
Start Az.
Max El. time (UTC)
Max El. Az.
Max El.
End time (UTC)
End Az.
10 mins2025-05-10 02:44:11.867Z170.95° S2025-05-10 02:49:11.867Z82.918° E44.594°2025-05-10 02:54:11.867Z359.857° N
4 mins2025-05-10 13:26:11.867Z62.06° ENE2025-05-10 13:27:11.867Z73.768° E13.717°2025-05-10 13:30:11.867Z107.925° ESE
9 mins2025-05-10 15:05:11.867Z356.003° N2025-05-10 15:09:11.867Z304.983° NW42.478°2025-05-10 15:14:11.867Z195.097° SSW
|